Location: Fort Worth, Tx
(32.7431°N, 97.3695°W)
Time: 01:41:01
(UTC-04:00)

Transit 2A - All Passes

Search period start: 08 September 2024 00:00
Search period end: 18 September 2024 00:00
Orbit: 590 x 961 km, 66.7° (Epoch: 07 September)

Date Brightness Start Highest point End Pass type
(mag) Time Alt. Az. Time Alt. Az. Time Alt. Az.
08 Sep - 06:42:53 10° N 06:47:18 20° NE 06:51:30 10° E visible
08 Sep - 08:24:55 10° NNW 08:30:59 62° WSW 08:36:31 10° S daylight
08 Sep - 21:16:04 10° SSE 21:20:58 32° ESE 21:26:15 10° NE visible
08 Sep - 22:58:52 10° WSW 23:04:01 33° NW 23:09:33 10° N visible
09 Sep - 06:08:30 10° NNE 06:11:32 14° NE 06:14:29 10° ENE visible
09 Sep - 07:49:27 10° NNW 07:55:39 87° ENE 08:01:18 10° SSE daylight
09 Sep - 20:41:45 10° SSE 20:45:50 21° ESE 20:50:09 10° ENE daylight
09 Sep - 22:22:57 10° SW 22:28:28 49° WNW 22:34:28 10° NNE visible
10 Sep - 07:14:08 10° NNW 07:20:14 59° ENE 07:25:49 10° SE visible
10 Sep - 08:59:00 10° WNW 09:02:42 17° WSW 09:06:13 10° SW daylight
10 Sep - 20:08:21 10° SE 20:10:45 13° E 20:13:15 10° ENE daylight
10 Sep - 21:47:21 10° SSW 21:53:00 74° WNW 21:59:12 10° NNE visible
10 Sep - 23:35:13 10° WNW 23:37:18 12° NW 23:39:27 10° NNW visible
11 Sep - 06:38:58 10° N 06:44:43 39° ENE 06:50:02 10° SE visible
11 Sep - 08:22:40 10° NW 08:27:35 27° WSW 08:32:11 10° SSW daylight
11 Sep - 21:12:00 10° SSW 21:17:38 74° ESE 21:23:47 10° NNE visible
11 Sep - 22:57:43 10° W 23:01:30 17° NW 23:05:25 10° N visible
12 Sep - 06:03:56 10° N 06:09:07 27° NE 06:13:56 10° ESE visible
12 Sep - 07:46:45 10° NW 07:52:24 41° WSW 07:57:35 10° S visible
12 Sep - 20:36:57 10° S 20:42:20 48° ESE 20:48:12 10° NE daylight
12 Sep - 22:21:04 10° WSW 22:25:46 24° NW 22:30:45 10° N visible
13 Sep - 05:29:10 10° N 05:33:25 19° NE 05:37:28 10° E visible
13 Sep - 07:11:06 10° NNW 07:17:08 64° WSW 07:22:38 10° SSE visible
13 Sep - 20:02:13 10° SSE 20:07:07 31° ESE 20:12:24 10° NE daylight
13 Sep - 21:44:52 10° WSW 21:50:08 35° WNW 21:55:47 10° N visible
14 Sep - 04:54:51 10° NNE 04:57:38 13° NE 05:00:19 10° ENE visible
14 Sep - 06:35:38 10° NNW 06:41:46 84° ENE 06:47:22 10° SSE visible
14 Sep - 08:22:57 10° W 08:23:54 10° W 08:24:50 10° WSW daylight
14 Sep - 19:27:56 10° SSE 19:31:58 20° ESE 19:36:13 10° ENE daylight
14 Sep - 21:08:59 10° SW 21:14:35 52° WNW 21:20:38 10° NNE visible
15 Sep - 06:00:18 10° NNW 06:06:20 56° ENE 06:11:50 10° SE visible
15 Sep - 07:45:03 10° WNW 07:48:49 18° WSW 07:52:25 10° SW visible
15 Sep - 18:54:38 10° ESE 18:56:53 12° E 18:59:11 10° ENE daylight
15 Sep - 20:33:23 10° SSW 20:39:06 77° WNW 20:45:21 10° NNE daylight
15 Sep - 22:20:56 10° WNW 22:23:21 12° NW 22:25:49 10° NNW visible
16 Sep - 05:25:07 10° N 05:30:47 37° ENE 05:36:00 10° SE visible
16 Sep - 07:08:43 10° NW 07:13:41 28° WSW 07:18:17 10° SSW visible
16 Sep - 19:58:03 10° SSW 20:03:43 71° ESE 20:09:53 10° NNE daylight
16 Sep - 21:43:35 10° W 21:47:32 18° NW 21:51:39 10° N visible
17 Sep - 04:50:07 10° N 04:55:10 26° NE 04:59:51 10° ESE visible
17 Sep - 06:32:50 10° NW 06:38:29 43° WSW 06:43:39 10° S visible
17 Sep - 19:22:59 10° S 19:28:25 46° ESE 19:34:16 10° NE daylight
17 Sep - 21:06:59 10° WSW 21:11:48 25° NW 21:16:54 10° N visible
